Temperature
13 13 13 13 13 13 13 13 13 13 13 12 12 12 12 12 12 12 12 12 12 12 12 12 12 12 12 12 12 12 12 12 12 12 12 12 12 12 12 12 11 11 11
13 12 12 12 12 12 13 12 12 12 12 12 12 12 12 12 12 12 12 12 12 12 12 12 12 12 12 12 12 12 12 12 12 12 12 12 12 11 11 11 11 11 11
12 12 12 12 12 12 12 12 12 12 12 12 12 12 12 12 12 12 11 11 11 12 12 11 11 11 11 11 11 11 11 11 11 11 11 11 11 11 11 11 11 11 11
12 12 12 12 12 12 12 12 12 12 12 12 12 12 12 11 11 11 11 11 11 11 11 11 11 11 11 11 11 11 11 11 11 11 11 11 11 11 11 11 11 11 11
12 12 11 12 12 11 11 11 11 11 11 11 11 11 11 11 11 11 11 11 11 11 11 11 11 10 10 10 10 10 10 10 10 10 10 10 10 10 10 11 10 10 10
11 11 11 11 11 11 11 11 11 11 11 11 10 10 11 10 10 10 10 10 10 10 10 10 10 10 10 10 10 10 10 10 10 10 10 10 10 10 10 10 10 10 10
11 11 11 11 11 11 11 11 10 10 10 10 10 10 10 10 10 10 10 10 10 10 10 10 9 9 9 10 9 9 9 9 9 9 9 10 10 10 10 10 10 10 10
11 11 11 11 10 10 10 10 10 10 10 9 9 9 9 9 9 9 9 9 9 9 9 9 9 9 9 9 9 9 9 9 9 9 9 9 9 9 9 9 9 9 10
10 10 10 10 10 10 10 10 9 9 9 9 9 8 8 8 8 8 9 9 9 9 9 9 9 8 8 8 8 9 8 8 8 8 8 9 9 9 9 9 9 9 9
10 10 10 10 10 9 9 9 9 9 9 9 8 8 8 8 8 7 8 8 8 8 8 8 8 8 8 8 8 8 8 8 8 8 8 8 8 8 8 9 9 9 9
10 10 10 9 9 9 9 9 9 9 8 8 8 8 8 7 7 7 7 7 7 7 8 8 8 8 8 8 8 8 8 8 8 8 7 8 8 8 8 8 8 8 8
9 9 9 9 9 8 8 8 8 8 8 8 7 7 7 7 7 6 6 6 6 7 7 7 7 7 7 7 7 7 7 7 7 7 7 7 7 7 7 7 8 8 8
9 9 8 8 8 8 8 8 8 8 7 7 7 7 7 6 6 6 6 6 6 6 6 6 6 6 7 7 7 7 7 7 7 7 7 7 7 7 7 7 7 7 7
8 8 8 8 8 8 8 7 7 7 7 7 6 6 6 6 6 6 5 5 5 5 5 6 6 6 6 6 6 6 6 6 6 6 6 6 6 6 6 6 6 7 7
8 8 7 8 8 7 7 7 7 6 6 6 6 6 5 5 5 5 5 5 4 4 4 5 5 5 5 5 5 5 5 6 5 6 6 6 6 6 6 6 6 6 6
7 7 7 7 7 7 7 6 6 6 6 5 5 5 5 5 5 5 4 4 4 4 4 4 4 5 5 5 5 5 5 5 5 5 5 5 5 5 5 5 6 6 6
7 6 6 6 6 6 6 6 5 5 5 5 5 4 4 4 4 4 4 4 4 3 3 3 4 4 4 4 4 4 4 4 4 4 5 5 5 5 5 5 5 5 5
6 6 6 6 5 5 5 5 5 5 4 4 4 4 4 3 3 3 3 3 3 3 3 3 3 3 4 3 3 3 4 4 4 4 4 4 4 4 4 4 4 5 5
5 5 5 5 5 5 5 4 4 4 4 3 3 3 3 3 3 3 3 3 3 3 2 2 2 3 3 3 3 3 3 3 3 3 4 4 4 4 4 4 4 4 4
5 5 4 4 4 4 4 4 4 3 3 3 3 3 3 3 2 2 2 2 2 2 2 2 2 2 2 2 2 2 2 3 3 3 3 3 3 3 3 3 3 4 4
4 4 4 4 4 3 3 3 3 3 3 3 3 2 2 2 2 2 2 2 2 2 2 2 2 2 2 2 2 2 2 2 2 2 3 3 3 3 3 3 3 3 3
4 3 3 3 3 3 3 3 2 2 2 2 2 2 2 2 1 1 1 1 1 1 1 1 1 1 1 1 1 1 1 1 1 2 2 2 2 2 3 3 3 3 3
3 3 3 3 2 2 2 2 2 2 2 2 1 1 1 1 1 1 1 1 1 1 1 1 1 1 1 1 1 1 1 1 1 1 1 1 2 2 2 2 2 2 3
2 2 2 2 2 2 2 1 1 1 1 1 1 1 0 0 0 0 0 1 1 1 1 1 0 1 1 1 1 1 1 1 1 1 1 1 1 1 1 2 2 2 2
2 2 2 1 1 1 1 1 1 1 1 1 0 0 -0 -0 -0 -0 -0 0 0 0 0 0 0 0 0 0 0 0 0 -0 0 0 0 0 1 1 1 1 2 2 2
1 1 1 1 1 1 0 0 0 0 0 0 -0 -0 -0 -1 -1 -1 -1 -0 -0 -0 -0 -0 0 0 0 0 0 -0 -0 -0 -0 -0 0 -0 0 0 0 1 1 1 1
Wind_Speed
1 1 1 1 1 1 1 1 1 1 2 2 2 3 3 4 4 2 4 6 6 6 7 7 7 8 8 8 9 9 10 10 11 10 10 11 11 11 11 11 12 12 12
1 1 0 0 0 0 0 1 1 1 2 1 2 3 3 4 3 2 4 5 7 8 8 8 8 8 8 8 8 8 9 10 11 12 12 12 12 13 13 13 13 13 13
1 1 1 1 1 1 0 0 1 1 1 1 2 3 2 3 3 3 4 5 5 7 8 8 8 8 9 9 10 9 9 10 11 11 12 13 13 14 14 14 14 14 15
1 1 1 1 1 0 1 0 1 0 1 1 2 2 2 2 3 3 3 3 4 4 6 8 9 10 10 10 11 11 11 11 11 12 12 13 14 15 15 16 16 16 15
0 1 1 1 0 0 0 1 0 0 1 2 2 3 2 2 2 3 2 2 3 4 4 7 9 10 11 11 11 12 12 12 12 12 12 13 14 15 17 17 17 17 17
0 1 0 1 0 0 1 1 1 1 1 1 2 3 3 3 2 2 3 2 3 4 5 5 7 9 11 12 12 13 13 13 13 13 13 13 14 14 15 17 18 19 19
1 1 1 1 1 1 1 1 1 1 1 1 1 3 3 3 3 3 2 2 3 4 5 5 6 7 8 12 13 13 13 14 13 13 13 14 14 14 15 15 16 17 18
2 2 1 1 1 1 2 2 1 1 1 0 1 1 2 3 3 3 2 3 4 3 3 5 6 7 8 8 10 12 13 14 14 14 14 15 15 15 16 16 17 16 18
1 2 2 2 2 2 2 3 2 2 2 1 1 1 1 3 3 3 3 3 4 3 3 4 6 7 7 7 8 10 13 15 15 15 15 16 16 16 17 17 17 18 17
2 2 2 2 2 2 2 2 2 2 3 2 2 2 3 2 2 3 3 3 4 5 5 5 5 7 8 8 9 10 12 14 15 16 16 17 17 18 18 18 18 17 17
2 2 2 2 2 2 2 2 2 2 2 3 2 2 3 2 3 4 6 4 4 4 4 5 4 5 8 9 9 10 12 13 15 17 17 18 18 19 19 18 18 18 18
1 1 2 1 1 1 2 2 3 2 2 3 2 2 2 2 3 4 6 6 5 5 5 5 5 5 7 8 10 12 13 15 16 17 18 19 19 19 19 19 19 19 19
1 1 1 1 1 1 1 2 2 3 3 3 3 3 3 4 3 3 5 6 6 6 5 4 5 5 6 6 8 13 14 15 17 17 18 19 19 20 19 19 19 20 20
1 1 1 1 1 1 1 1 2 3 3 3 4 3 3 3 3 3 4 4 7 7 6 6 4 5 5 6 10 13 12 15 17 18 18 18 19 19 20 20 20 21 21
1 0 1 1 1 1 2 2 2 3 3 3 3 4 4 4 3 4 4 4 5 8 9 7 4 4 5 7 11 10 10 14 17 18 19 19 19 19 20 21 21 22 22
1 1 1 1 2 2 2 2 2 3 3 3 3 4 4 4 4 4 4 5 5 7 10 7 6 6 6 8 12 11 12 16 17 18 19 19 19 20 21 21 22 22 22
1 1 1 1 2 2 2 2 3 3 4 4 4 5 5 5 5 5 5 5 5 6 10 10 6 6 7 8 8 9 11 11 12 16 18 19 20 20 21 20 21 21 21
0 0 1 1 2 2 2 2 3 3 4 5 5 5 6 6 6 6 5 6 6 6 8 12 9 7 8 8 8 8 8 10 9 15 17 19 19 20 19 19 20 20 20
0 1 1 2 2 2 3 3 4 4 5 5 5 6 6 6 7 6 6 7 6 7 7 9 10 7 7 7 7 8 8 7 10 13 16 17 18 19 19 19 19 19 18
0 1 2 2 2 3 3 4 4 5 5 5 5 6 7 7 8 8 8 8 7 7 7 8 9 8 8 7 6 7 8 7 8 9 12 14 16 18 18 18 18 17 17
1 1 2 2 3 3 4 5 5 5 6 6 6 7 8 10 11 10 9 7 7 7 7 8 9 9 8 7 7 6 9 8 8 7 7 8 9 9 10 15 16 16 16
2 2 2 3 3 4 7 9 8 6 6 7 8 8 8 9 11 14 15 14 12 11 10 9 10 10 11 9 8 8 8 9 9 4 6 9 7 8 7 8 13 14 14
2 3 3 3 4 5 9 10 11 8 7 7 7 7 8 9 10 8 12 14 14 17 16 13 13 13 12 11 10 10 9 10 11 7 6 10 7 8 7 9 13 13 14
2 3 3 4 4 6 9 10 11 7 6 7 7 7 8 8 9 10 9 10 11 11 13 11 11 12 12 11 10 11 11 10 9 7 6 9 7 7 7 6 11 13 13
3 3 4 4 5 6 9 10 11 6 6 7 7 7 8 9 13 15 11 11 12 11 12 15 16 16 17 17 13 8 8 8 10 8 5 6 6 6 6 5 7 10 10
3 4 4 4 5 5 8 10 10 5 6 7 7 7 11 12 15 15 10 10 12 11 10 11 12 13 12 13 15 10 8 9 8 8 4 4 5 4 4 4 3 4 5
Wind_Direction
148 107 77 103 142 180 180 201 222 244 250 263 239 233 243 250 248 200 175 192 208 230 246 255 261 264 262 259 253 249 246 245 244 245 245 243 242 242 243 243 241 241 241
111 133 156 85 315 276 217 220 220 235 239 259 264 263 256 250 245 208 181 204 218 231 245 257 266 271 270 266 261 257 255 254 251 249 247 245 244 245 245 245 245 244 245
103 116 169 211 263 238 271 284 269 287 262 265 268 277 284 282 271 245 207 202 214 230 244 259 266 271 273 271 269 264 263 263 260 257 254 249 248 247 248 247 246 247 247
111 105 167 219 316 353 25 221 190 239 271 266 274 272 269 276 271 265 238 203 194 216 237 256 265 269 272 273 274 274 268 265 264 261 259 255 252 251 249 248 247 248 248
45 90 159 213 273 338 227 231 124 243 263 269 272 266 263 264 264 269 251 229 226 217 222 246 255 264 268 270 273 276 276 271 269 266 264 261 259 256 252 250 249 250 249
301 57 128 223 252 183 219 206 218 254 253 255 286 294 277 264 264 262 260 258 240 237 236 241 245 255 262 268 272 274 274 274 272 269 268 267 266 264 261 257 252 250 250
202 165 233 228 196 203 213 228 227 221 279 313 325 313 291 264 251 262 257 258 261 247 238 245 246 248 253 259 264 269 272 274 274 271 269 270 270 268 266 265 262 258 253
210 193 178 217 225 216 221 224 211 215 247 227 219 307 304 306 282 267 259 259 260 265 259 255 252 251 250 248 256 262 268 271 274 273 274 272 271 270 268 268 266 266 263
216 182 194 196 218 217 219 220 208 213 215 236 219 188 226 261 295 271 258 254 256 260 260 262 256 256 255 252 252 256 262 268 272 274 275 275 273 272 270 269 269 268 269
197 190 194 207 219 214 212 222 217 214 202 224 246 237 229 239 269 294 280 264 265 263 259 271 266 262 259 255 256 261 262 265 270 273 275 276 276 275 271 270 269 269 270
200 193 194 202 219 214 210 217 220 222 217 223 227 236 254 262 248 264 283 282 273 260 260 263 264 261 259 256 254 256 261 265 268 270 273 277 277 278 274 271 269 269 270
211 197 181 191 213 216 219 221 217 226 232 236 240 230 227 235 240 248 268 280 280 273 265 257 261 264 260 254 259 266 268 268 267 268 271 273 276 277 275 272 270 270 270
253 259 222 214 218 229 237 226 219 225 229 231 236 240 240 241 239 246 263 278 283 283 276 261 255 264 267 257 264 272 270 270 269 268 269 270 272 273 273 272 270 270 270
233 240 242 238 243 255 259 245 237 237 236 238 249 248 248 248 246 246 254 271 286 286 276 267 264 253 268 271 271 273 269 270 270 268 267 268 269 269 270 272 272 270 269
217 238 241 244 247 243 236 238 241 246 243 238 244 249 252 252 251 252 251 244 257 278 281 275 273 270 279 272 273 273 268 273 273 271 269 268 268 268 269 271 271 270 268
194 222 243 245 254 249 236 231 244 247 247 250 250 248 253 257 255 250 248 252 248 258 274 278 280 284 285 288 284 278 273 275 273 271 270 269 270 270 271 270 270 268 267
208 220 235 252 264 262 261 251 249 249 250 254 256 255 254 254 259 260 254 253 256 257 271 281 281 284 282 279 284 279 277 273 272 273 274 274 273 271 271 270 269 268 267
236 253 289 291 283 285 275 263 268 269 260 258 257 258 260 262 260 261 260 259 258 257 265 279 285 283 279 275 275 278 282 283 278 278 277 276 274 273 273 271 270 268 266
321 333 314 292 284 287 284 269 265 269 265 264 263 262 263 261 264 263 261 261 263 268 264 272 281 282 281 280 281 282 278 274 281 280 277 275 275 275 275 273 271 268 263
344 307 305 301 294 291 293 284 276 275 272 270 266 265 267 262 262 263 265 260 264 267 267 271 278 282 280 279 278 281 286 275 277 284 280 279 277 276 275 273 271 268 265
322 317 307 305 304 296 292 293 283 279 276 277 275 272 270 270 271 271 272 266 264 265 269 271 275 281 280 282 276 277 282 286 279 272 274 275 275 271 271 271 269 266 266
329 328 315 304 301 302 307 305 300 287 282 279 279 278 277 274 276 277 277 276 272 267 268 268 271 271 275 274 276 277 279 285 286 262 271 282 275 275 270 266 268 268 269
317 308 305 305 298 298 304 308 304 296 288 286 285 285 288 287 286 279 281 279 273 269 265 264 267 268 271 271 272 275 271 274 276 275 280 284 276 274 275 277 272 269 271
305 296 304 306 303 303 308 309 309 301 292 291 289 285 285 286 285 286 282 279 273 270 266 264 262 267 268 267 264 267 270 275 278 274 259 276 282 279 283 275 273 270 271
306 301 302 303 302 302 308 312 314 298 295 294 292 292 292 289 292 295 289 284 284 280 280 276 275 275 275 276 277 278 275 276 281 280 253 256 276 288 286 278 276 271 269
301 302 300 299 298 300 307 315 317 307 302 300 300 297 294 296 297 298 290 284 284 285 285 285 281 279 275 274 273 264 261 267 277 279 253 248 276 292 289 274 275 283 283
Height
1508 1509 1509 1510 1511 1512 1513 1513 1514 1515 1515 1516 1516 1517 1517 1518 1519 1519 1519 1519 1519 1519 1519 1519 1520 1520 1520 1520 1520 1520 1520 1520 1520 1520 1520 1521 1521 1521 1521 1522 1522 1522 1523
1506 1507 1507 1508 1509 1510 1510 1511 1512 1512 1513 1513 1514 1514 1514 1515 1515 1516 1516 1516 1516 1516 1516 1516 1516 1516 1516 1516 1516 1516 1516 1516 1516 1516 1516 1517 1517 1517 1517 1518 1518 1518 1519
1504 1504 1505 1505 1506 1507 1508 1508 1509 1510 1510 1510 1511 1511 1511 1512 1512 1513 1513 1512 1512 1512 1513 1512 1512 1513 1512 1512 1512 1512 1512 1512 1512 1512 1512 1512 1512 1513 1513 1513 1514 1514 1514
1501 1502 1502 1503 1504 1504 1505 1505 1506 1506 1507 1507 1507 1508 1508 1509 1509 1509 1509 1509 1509 1509 1509 1509 1509 1509 1509 1509 1508 1508 1508 1508 1508 1508 1508 1508 1508 1508 1508 1509 1509 1509 1509
1499 1499 1500 1500 1501 1501 1502 1502 1503 1503 1503 1504 1504 1504 1505 1505 1505 1506 1506 1506 1505 1505 1505 1505 1505 1505 1504 1504 1504 1504 1504 1504 1503 1503 1503 1503 1503 1503 1503 1503 1504 1504 1504
1496 1496 1497 1497 1498 1498 1499 1499 1500 1500 1500 1501 1501 1501 1501 1501 1502 1502 1502 1502 1502 1501 1501 1501 1500 1500 1500 1500 1500 1499 1499 1499 1498 1498 1498 1498 1498 1498 1498 1498 1498 1498 1499
1493 1493 1494 1494 1495 1495 1496 1496 1497 1497 1497 1498 1497 1497 1497 1498 1498 1498 1498 1498 1498 1497 1497 1496 1496 1496 1495 1495 1495 1494 1494 1494 1493 1493 1492 1492 1492 1492 1492 1492 1492 1492 1492
1489 1489 1490 1491 1491 1492 1492 1493 1493 1494 1494 1495 1495 1494 1494 1494 1493 1494 1494 1494 1494 1493 1493 1492 1492 1491 1491 1490 1490 1489 1489 1488 1488 1487 1487 1486 1486 1486 1486 1486 1486 1486 1486
1486 1486 1486 1487 1487 1488 1489 1489 1490 1490 1490 1491 1492 1493 1492 1490 1490 1489 1489 1489 1489 1489 1488 1488 1487 1487 1486 1485 1484 1484 1484 1483 1483 1482 1482 1481 1480 1480 1479 1479 1480 1480 1480
1482 1482 1483 1483 1483 1484 1485 1485 1486 1487 1487 1487 1488 1489 1490 1489 1488 1485 1485 1485 1485 1484 1484 1483 1482 1482 1481 1480 1479 1479 1478 1478 1477 1476 1476 1475 1474 1473 1473 1472 1472 1472 1473
1478 1479 1479 1479 1480 1480 1481 1481 1482 1483 1483 1483 1484 1484 1485 1485 1485 1484 1480 1480 1480 1480 1479 1478 1477 1476 1476 1475 1474 1473 1472 1472 1471 1470 1469 1468 1468 1466 1466 1465 1465 1465 1465
1475 1475 1475 1476 1476 1477 1477 1478 1478 1479 1479 1479 1480 1480 1480 1480 1479 1480 1478 1475 1474 1474 1474 1473 1472 1471 1470 1469 1468 1467 1466 1466 1465 1464 1463 1462 1461 1460 1459 1458 1458 1457 1457
1471 1472 1472 1472 1473 1473 1474 1474 1474 1474 1475 1475 1475 1475 1475 1475 1475 1475 1474 1471 1469 1468 1467 1466 1466 1465 1464 1463 1462 1461 1460 1459 1458 1457 1456 1455 1453 1452 1451 1451 1450 1449 1449
1468 1469 1469 1469 1469 1470 1470 1470 1470 1470 1470 1470 1471 1471 1470 1470 1470 1470 1469 1468 1465 1462 1461 1459 1459 1459 1459 1457 1456 1455 1453 1452 1451 1449 1448 1447 1446 1445 1444 1443 1442 1442 1441
1465 1465 1465 1466 1466 1466 1466 1466 1466 1466 1466 1466 1466 1466 1465 1465 1465 1465 1465 1465 1464 1459 1454 1453 1453 1452 1452 1451 1449 1448 1446 1445 1443 1442 1441 1439 1438 1437 1436 1435 1434 1433 1433
1461 1462 1462 1462 1462 1462 1462 1462 1462 1462 1462 1461 1461 1461 1460 1460 1460 1459 1459 1459 1458 1456 1450 1447 1446 1446 1446 1444 1443 1442 1440 1438 1436 1434 1433 1431 1430 1429 1428 1426 1425 1424 1424
1458 1458 1458 1458 1458 1459 1458 1458 1458 1457 1457 1456 1456 1455 1455 1455 1454 1453 1453 1452 1452 1450 1446 1441 1440 1440 1439 1437 1436 1434 1433 1431 1429 1427 1425 1424 1422 1421 1419 1418 1416 1415 1415
1455 1455 1455 1455 1455 1455 1454 1454 1453 1453 1452 1451 1450 1450 1449 1449 1448 1447 1446 1445 1444 1443 1441 1436 1433 1433 1431 1430 1429 1427 1425 1423 1421 1420 1418 1416 1415 1413 1411 1409 1408 1407 1406
1452 1452 1452 1451 1451 1451 1450 1449 1449 1448 1447 1446 1445 1445 1443 1443 1441 1441 1440 1438 1437 1436 1435 1431 1427 1426 1424 1423 1422 1419 1417 1415 1414 1412 1410 1409 1407 1405 1403 1401 1400 1399 1398
1449 1448 1448 1447 1447 1447 1446 1445 1444 1443 1442 1441 1440 1439 1438 1437 1435 1434 1433 1431 1431 1429 1427 1425 1421 1419 1418 1416 1415 1412 1409 1407 1405 1404 1402 1401 1399 1397 1394 1393 1392 1390 1390
1446 1445 1444 1444 1443 1443 1442 1441 1439 1438 1437 1435 1434 1433 1432 1431 1429 1428 1427 1425 1424 1422 1420 1418 1415 1413 1411 1409 1408 1406 1403 1400 1397 1397 1394 1392 1391 1388 1386 1385 1384 1383 1382
1442 1442 1441 1440 1439 1438 1438 1437 1435 1433 1432 1430 1428 1426 1425 1424 1422 1421 1420 1418 1417 1415 1413 1411 1408 1406 1403 1403 1402 1400 1397 1394 1389 1389 1388 1384 1384 1380 1378 1377 1376 1375 1374
1439 1438 1437 1436 1435 1434 1433 1432 1430 1429 1426 1424 1422 1420 1419 1417 1416 1414 1411 1410 1409 1408 1407 1405 1401 1399 1397 1396 1395 1393 1391 1388 1384 1383 1382 1376 1376 1373 1371 1369 1368 1368 1367
1436 1435 1434 1432 1431 1429 1428 1427 1425 1423 1420 1418 1416 1414 1412 1410 1408 1407 1404 1402 1400 1399 1398 1397 1394 1392 1391 1389 1389 1387 1384 1381 1378 1376 1376 1371 1368 1366 1364 1363 1362 1361 1360
1433 1431 1430 1428 1427 1425 1423 1421 1420 1417 1414 1412 1410 1409 1407 1404 1402 1401 1398 1394 1391 1390 1389 1388 1386 1384 1383 1382 1381 1380 1377 1375 1370 1368 1369 1367 1362 1360 1357 1356 1355 1355 1354
1429 1427 1426 1424 1422 1420 1418 1417 1415 1412 1409 1407 1404 1402 1400 1398 1396 1394 1391 1388 1384 1381 1380 1378 1377 1376 1374 1373 1373 1372 1370 1368 1365 1362 1361 1361 1358 1356 1352 1349 1350 1349 1348